sat.trackr.live / text

‹ back to catalog

STARLINK-3247

NORAD 49747 · 2021-115Z

PAYLOAD ACTIVE UNKNOWN

§ Identity

Operator
Country
US
Launch date
2021-12-02
Launch site
AFETR
Launch vehicle
Mass (kg)
RCS (m²)

Purposes: comms

External: N2YO · Heavens-Above · Gunter

§ Orbital elements

Epoch: 2026-09-19T18:52:13.667520Z

Period
95.12 min
Inclination
53.1620°
Eccentricity
0.0001228
Mean motion
15.13855407 rev/d
Perigee alt
523.6 km
Apogee alt
525.3 km
Semi-major
6,902.6 km
B*
8.0773e-4
RAAN
355.7720°
Arg perigee
42.6354°
Mean anomaly
317.4735°
Rev number
26,485

§ Raw data

STARLINK-32471 49747U 21115Z   26262.78626930  .00014502  00000+0  80773-3 0  99992 49747  53.1620 355.7720 0001228  42.6354 317.4735 15.13855407264850

JSON: /api/v1/satellites/49747 · /tle

For live sub-satellite position, see the globe view (requires WebGL).

§ Visibility from observer

Set your observer location to see the next 7 days of passes ≥ 10°. The values pass through the URL so the page stays shareable.

No JS? Fill the form by hand. The geolocation button needs JavaScript.